Find Starlink 30878

NORAD ID: 58359 Int'l Des: 2023-177 Owner: SPXS Country: US Constellation: starlink operational
LEOCIRCULAR

当前视图

正在加载3D地球...

About Starlink 30878

Starlink 30878 (NORAD 58359) is a starlink constellation satellite (v2 mini) launched Nov 18, 2023 by SPXS of US. It operates in LEO, CIRCULAR orbit with a mass of 730.00 kg.

关于 Starlink 30878

正在加载描述...

即将过境

Passes for default location (London). Set your location on the main map for personalized predictions.

高度历史

Loading altitude history...

两行轨道根数

1 58359U 23177J 26192.89447530 -.00000095 00000-0 60832-5 0 9999
2 58359 43.0034 12.5044 0000896 316.0757 44.0024 15.27577878147186
Epoch: Jul 11, 2026 • Age: 25 hours

当前状态

高度 491.3 km
远地点 / 近地点 N/A
速度 7.62 km/s
星下点 -30.56°S, 35.04°W
发射日期 Nov 18, 2023
运行时间 2.6 years
类型 internet

技术详情

分类 Payload
质量 730.00 kg
干质量 700.00 kg
总质量 730.00 kg
长度 0.30 m
直径 4.10 m
跨度 29.00 m
形状 Box + pan
制造商 SPXS
平台类型 Starlink V2M
阶段状态 In Orbit
所有者/国家 SPXS/US

Most Searched